Temp_Advection
nan nan nan nan nan nan nan nan nan nan nan nan nan nan nan nan nan nan nan nan nan nan nan nan nan nan nan nan nan nan nan nan nan nan nan nan nan nan nan nan nan nan nan nan
nan -1 -2 -1 -0 0 -0 -1 -1 -1 -0 0 0 0 -0 -0 -0 -0 -0 0 0 0 0 -0 -0 0 0 1 1 1 1 1 1 1 1 1 1 -0 -0 0 0 0 0 nan
nan -2 -1 -0 0 -0 -0 -0 -0 -1 -1 0 0 -0 -1 -1 -0 -0 -0 0 1 1 0 -0 -0 0 1 2 1 1 1 1 1 1 1 1 -0 -0 -0 -0 0 0 0 nan
nan -1 -0 0 -1 -0 -0 -1 0 0 0 -0 0 -0 -1 -1 -1 -0 1 1 1 0 0 -1 -0 1 2 1 1 1 1 0 1 1 1 0 -0 0 1 1 0 0 0 nan
nan -1 -1 -1 -1 -0 -1 -0 0 0 1 0 0 -0 -1 -1 -0 -0 0 0 -0 -0 -0 -0 1 1 1 1 1 1 0 0 1 1 1 0 1 1 1 1 0 0 0 nan
nan -1 -1 -1 -0 -0 0 1 0 0 1 0 -1 -0 -1 -1 -1 -1 -0 -0 0 0 -0 1 1 2 1 1 1 1 0 0 0 1 1 1 1 1 1 1 1 0 1 nan
nan -0 -1 0 0 0 1 1 1 1 0 -1 -1 -0 -1 -1 -1 -0 0 0 0 0 1 0 0 0 0 1 0 0 0 1 1 1 1 1 1 1 1 1 -0 -0 1 nan
nan -0 -2 -0 -0 0 0 1 0 -0 -1 -2 -1 -1 -2 -2 -0 1 0 0 0 0 1 0 0 0 1 1 -0 0 1 0 1 1 1 1 0 1 0 0 0 1 0 nan
nan -2 -1 -0 -0 0 1 -1 0 0 -0 -1 -2 -2 -0 1 0 0 1 1 0 1 0 0 0 0 1 1 0 1 1 1 1 1 1 0 1 1 1 0 0 -0 0 nan
nan -1 -1 -0 1 1 0 1 1 0 1 -2 -2 -1 -1 -0 0 0 0 0 0 1 -1 -0 0 1 1 1 1 1 1 1 1 0 0 0 1 1 1 0 0 0 1 nan
nan -1 -1 1 0 0 -0 1 -1 0 1 0 -1 -2 -1 -0 -0 0 -0 0 0 0 0 0 0 1 1 1 1 1 0 0 0 0 0 0 0 1 0 0 0 1 0 nan
nan 1 -0 -2 -0 0 1 0 0 0 -1 -1 -0 -1 -1 -0 -0 -0 -0 0 0 0 1 0 0 0 1 1 1 1 0 0 0 0 0 1 1 0 0 1 0 0 0 nan
nan 1 -0 -2 -2 -0 1 -0 -0 -0 1 1 -0 -2 -1 -0 -0 -0 0 0 0 1 0 0 0 0 0 1 1 1 0 0 0 1 1 1 1 1 1 1 0 0 0 nan
nan 1 0 -1 -2 -0 0 -0 0 2 1 -0 -1 -2 -0 -0 -0 -0 0 1 0 1 0 0 0 0 0 1 1 1 0 0 1 1 1 1 1 1 1 1 1 1 1 nan
nan 0 -1 -2 -1 -0 -1 -0 1 0 -0 -0 -1 -1 -1 -1 0 0 0 1 0 0 0 0 1 1 1 1 1 1 0 1 0 0 0 1 0 0 1 1 1 1 1 nan
nan 0 -1 -1 -1 0 -1 0 0 -0 -0 -1 -0 -1 -1 -0 -0 0 0 0 0 0 0 0 1 1 1 0 1 1 0 0 0 0 0 0 0 0 -0 -0 -0 -0 0 nan
nan -1 -0 -1 -2 3 1 -2 -0 0 -0 0 -0 -2 -1 0 -0 -0 -0 0 0 1 1 1 1 1 1 1 2 1 1 1 1 1 1 1 1 0 0 0 0 0 0 nan
nan -0 -1 -2 0 -1 -2 -1 0 -0 1 0 -1 -1 -0 -0 -0 -0 0 0 1 1 1 1 1 1 2 1 1 1 1 1 1 1 1 1 0 0 0 1 1 0 0 nan
nan 0 -0 -1 -1 -2 -1 -0 0 0 0 -2 -1 -1 -0 -0 1 0 -0 0 1 1 0 1 2 2 2 2 3 2 2 1 1 1 0 0 0 0 0 0 0 0 0 nan
nan 1 0 -1 -1 -2 -3 -2 -1 2 0 -3 -1 -0 1 2 1 -1 -0 1 1 1 0 1 2 3 4 4 2 2 2 1 1 1 1 0 0 0 0 0 0 0 -0 nan
nan 0 -0 -1 -1 -2 -2 -1 3 2 -2 -3 -1 0 1 0 -0 0 0 0 0 1 1 2 3 4 4 3 2 2 1 1 1 1 0 0 0 0 0 0 0 0 1 nan
nan 1 -0 -1 -1 -2 -3 0 1 -2 -2 -0 0 1 1 0 -0 -0 0 0 1 1 2 3 3 3 2 2 2 1 1 1 1 1 1 0 0 0 0 1 0 0 -0 nan
nan -1 -1 -1 -3 -2 -0 -0 -2 -0 0 0 0 1 1 0 0 1 0 1 1 2 2 3 3 2 2 1 2 1 1 1 1 1 1 0 0 0 0 0 -0 0 -0 nan
nan 0 -1 -2 -1 -1 -1 -0 -0 0 1 0 0 0 0 0 1 1 0 1 1 1 1 1 2 2 2 1 1 1 1 1 0 0 0 0 0 0 -0 -0 -0 -0 -0 nan
nan 0 -1 -1 -1 -0 0 1 0 0 0 0 0 1 1 1 1 1 0 1 0 0 0 0 0 1 1 1 1 1 1 1 0 0 0 0 -0 -0 0 0 0 -0 -0 nan
nan nan nan nan nan nan nan nan nan nan nan nan nan nan nan nan nan nan nan nan nan nan nan nan nan nan nan nan nan nan nan nan nan nan nan nan nan nan nan nan nan nan nan nan
Wind_Speed
25 14 19 23 22 20 20 22 22 18 23 18 15 16 15 18 21 22 26 24 24 26 26 25 20 20 22 22 18 19 15 29 34 36 36 37 39 38 34 35 33 35 34 32
19 24 23 21 22 22 23 24 23 18 16 6 12 16 17 16 18 24 25 26 25 25 26 27 26 26 26 23 20 23 22 18 35 38 36 36 37 34 34 33 35 33 35 35
25 23 22 24 22 23 23 22 20 21 17 19 11 20 18 20 28 34 33 26 25 25 24 27 28 26 23 20 18 19 19 20 27 34 33 31 29 29 32 34 32 33 36 35
27 25 26 26 27 24 22 21 19 20 17 15 16 16 18 13 17 17 28 24 22 23 26 30 26 23 23 16 16 22 22 24 27 31 32 34 34 34 35 32 30 33 35 36
30 28 27 28 25 26 24 18 18 17 17 18 22 13 13 16 17 18 16 24 26 23 23 22 20 15 15 15 21 22 17 19 25 28 34 30 34 34 31 33 34 37 40 35
29 35 29 30 26 20 20 22 18 16 13 16 20 17 15 15 18 16 10 11 11 16 18 17 18 21 15 20 19 14 11 11 14 25 29 32 37 35 35 32 37 36 36 35
29 31 27 30 28 27 24 16 12 14 13 18 15 16 18 12 20 22 10 14 13 16 13 15 16 14 11 16 12 12 13 14 20 25 28 34 31 31 27 38 40 39 37 34
23 22 31 24 32 24 26 20 12 17 14 17 20 24 18 19 17 16 10 11 7 6 13 13 12 10 14 18 13 13 16 23 26 29 32 31 26 27 31 32 30 34 36 33
24 33 22 29 27 25 25 24 26 19 21 15 14 21 18 20 8 7 14 17 13 10 12 11 10 13 18 18 13 14 16 17 22 25 24 23 31 28 28 29 27 28 27 29
22 21 27 27 31 24 26 19 20 15 20 23 16 18 11 10 13 14 11 14 17 18 18 14 14 17 17 16 11 14 15 17 17 19 21 23 26 27 24 24 24 25 25 24
29 22 20 28 28 33 17 22 19 16 15 16 21 16 12 17 9 12 13 15 17 21 19 17 15 18 18 16 12 14 17 19 21 23 24 26 25 24 22 23 24 23 23 22
32 11 22 25 30 31 26 26 25 11 28 23 17 14 7 3 5 5 11 17 21 20 20 16 17 21 18 15 13 15 18 21 24 25 25 26 26 25 25 23 22 22 21 20
24 22 22 20 21 23 30 28 28 26 18 21 15 20 13 21 15 19 11 13 16 15 16 15 17 22 16 16 17 16 20 23 24 24 24 23 21 21 22 23 22 22 21 19
26 25 27 23 25 22 27 31 27 25 17 17 19 25 16 14 10 7 17 16 16 15 13 15 15 22 22 18 19 16 21 22 24 23 23 23 22 22 23 23 23 21 20 18
23 27 31 31 35 24 34 25 29 26 26 21 22 29 27 18 11 11 17 17 17 20 23 19 17 19 24 23 22 18 18 22 23 22 22 23 23 23 23 23 24 23 19 15
18 26 25 30 31 36 31 32 29 29 26 28 26 29 25 21 23 19 23 25 25 26 27 23 21 18 23 27 27 23 25 26 25 25 26 27 26 26 25 23 20 17 14 11
7 5 18 25 29 29 38 26 28 27 28 24 27 31 22 24 25 25 26 23 31 26 22 20 22 25 23 28 29 30 32 27 24 24 24 24 25 22 19 17 15 14 11 7
9 13 8 16 24 36 17 32 30 23 26 29 27 32 26 25 35 23 25 24 19 22 23 25 26 27 30 32 31 32 31 27 26 27 26 22 21 21 21 19 14 9 9 9
19 18 7 10 22 19 29 23 25 27 34 30 29 33 28 41 27 22 38 29 27 14 18 23 26 30 35 34 33 31 28 29 32 28 26 27 27 24 19 12 9 7 5 7
21 19 17 13 22 30 24 24 32 24 25 33 27 24 28 24 14 18 21 22 16 16 19 20 24 32 34 33 26 31 36 34 33 34 33 28 23 16 11 7 4 3 5 9
11 14 22 18 13 15 19 27 32 32 20 31 37 26 13 8 10 12 10 14 16 18 17 16 25 30 29 28 34 38 37 36 35 31 28 22 16 12 8 9 12 14 11 13
17 16 14 17 16 12 22 27 33 19 27 17 34 33 23 5 4 6 7 7 9 13 17 24 28 29 32 35 39 38 36 33 29 26 20 16 13 12 12 11 9 12 15 18
18 15 14 16 19 15 15 22 28 19 10 20 18 22 18 13 9 9 7 11 17 21 25 28 33 37 36 33 34 34 32 29 24 19 15 11 7 6 8 10 13 15 16 17
22 20 18 18 17 25 29 21 25 20 12 15 9 9 9 9 8 11 12 16 22 21 25 26 30 31 31 30 29 31 27 21 15 12 7 7 9 9 11 12 13 15 15 17
10 14 26 22 14 17 27 33 39 26 8 14 17 18 15 13 12 11 13 18 20 21 24 26 28 27 29 29 26 23 20 16 13 12 11 10 9 10 10 12 14 15 17 18
13 8 12 7 16 11 7 10 16 9 17 13 10 9 8 10 14 13 16 20 21 24 24 27 27 25 28 26 24 20 19 17 13 11 10 10 10 10 12 14 16 18 20 22
Wind_Direction
218 226 223 227 224 243 250 258 247 237 227 199 215 243 256 253 249 230 229 237 241 247 252 254 240 227 237 239 203 204 219 229 220 222 223 218 213 214 214 211 214 211 223 227
227 225 229 235 237 233 243 258 261 276 273 202 234 245 253 246 252 257 258 252 239 236 245 246 244 242 230 222 225 233 225 221 221 224 228 221 219 219 214 209 212 211 218 226
221 228 222 238 235 238 240 239 249 262 266 270 258 274 268 258 256 251 253 255 245 249 239 244 244 234 224 225 240 240 224 229 226 217 222 216 217 224 216 218 216 208 214 226
232 229 235 218 235 234 236 239 246 257 268 259 262 270 258 261 266 254 232 235 253 247 242 242 248 213 203 209 222 237 236 230 225 223 217 211 214 216 216 215 208 208 215 223
227 226 225 244 222 230 247 244 249 250 247 255 252 262 256 267 266 269 213 223 226 234 234 228 216 180 184 211 237 249 250 237 220 222 217 214 215 213 203 202 204 202 215 221
238 229 229 233 242 238 238 247 255 260 266 258 244 248 256 248 259 259 216 213 222 229 225 206 189 181 183 221 243 249 236 244 209 211 213 222 218 218 214 211 209 213 212 221
227 229 231 228 234 231 232 236 227 233 228 240 234 240 240 245 246 252 224 199 222 217 206 160 161 165 182 237 258 229 204 197 199 208 217 222 225 230 230 233 227 222 220 216
223 222 216 223 227 222 224 215 228 224 226 250 225 243 246 245 256 210 171 185 191 169 163 164 174 184 195 230 253 233 213 205 203 207 215 220 223 211 223 222 226 219 215 217
223 231 212 224 230 212 223 215 225 250 278 288 261 250 243 221 202 170 170 183 207 201 160 173 187 184 192 224 249 225 224 220 212 216 217 211 203 215 222 227 217 212 208 206
241 244 220 217 220 206 221 236 211 228 236 251 254 250 256 242 191 188 194 200 204 208 177 187 189 193 206 232 236 218 215 211 201 200 199 199 204 210 205 204 201 197 196 197
236 250 247 213 208 215 194 227 241 211 224 233 253 249 237 269 333 204 184 205 216 214 205 199 187 196 207 234 250 231 218 207 205 207 207 206 205 204 199 194 189 185 183 181
217 235 244 249 217 213 206 210 226 212 220 226 241 247 267 328 4 360 180 206 203 209 211 189 183 186 203 235 243 233 217 210 209 207 206 207 202 197 192 186 183 179 181 180
209 223 245 257 259 239 202 204 221 235 222 231 226 247 234 274 273 246 244 217 203 190 169 183 188 187 201 225 247 233 217 212 209 204 200 196 190 185 186 182 178 177 174 169
212 233 220 232 233 230 210 212 215 224 235 225 234 254 232 234 229 256 203 218 174 188 197 200 204 195 196 211 226 234 216 210 203 192 195 194 184 185 184 175 172 168 166 170
264 228 235 225 237 232 239 215 212 227 219 229 225 238 239 237 235 198 200 207 225 190 193 205 222 207 205 194 214 220 205 193 187 191 183 176 175 176 177 172 173 172 174 175
265 265 228 246 224 233 244 229 218 217 232 231 240 241 243 253 263 257 213 207 218 218 206 215 209 221 203 193 203 204 195 187 188 186 181 176 175 183 185 180 173 170 169 165
290 292 233 232 230 228 233 243 219 215 225 230 225 238 243 239 239 244 260 233 220 226 212 217 220 217 215 200 197 196 197 184 187 188 188 182 189 184 175 172 168 169 174 204
260 291 271 233 236 230 221 232 243 251 221 227 242 242 240 242 248 261 253 256 251 223 215 223 226 213 201 195 195 200 200 200 188 192 185 187 181 174 173 178 178 208 248 255
224 253 271 246 231 234 232 228 227 236 245 244 238 235 239 244 251 250 246 251 250 231 238 241 228 213 206 210 211 200 213 190 187 181 183 179 184 181 175 196 220 234 249 270
228 223 245 252 226 224 224 229 228 240 242 244 248 236 227 237 235 242 235 232 241 258 269 262 224 217 207 203 205 194 184 184 182 185 188 186 179 187 197 206 225 258 291 300
233 243 233 240 238 232 219 222 233 219 231 236 229 237 252 233 240 248 252 274 274 258 246 212 211 199 197 192 188 181 180 183 187 189 185 184 192 198 208 243 254 268 263 273
244 233 237 228 227 224 220 224 223 222 221 241 223 238 250 256 292 278 264 242 221 200 184 182 183 178 173 175 181 181 184 189 188 185 193 206 215 246 262 252 261 267 259 259
242 229 237 215 213 215 214 226 245 245 203 178 193 197 187 209 223 223 153 164 175 175 166 172 171 167 168 172 182 189 188 185 190 198 204 211 218 245 258 252 253 262 267 274
231 214 233 224 200 220 228 241 256 259 210 221 245 201 191 207 243 197 178 176 167 173 161 162 172 164 164 177 184 179 181 181 186 183 182 210 220 233 243 253 260 269 278 284
256 221 202 218 219 217 221 231 252 256 191 222 229 233 224 193 183 193 186 181 171 172 168 168 159 167 179 179 173 176 173 167 178 192 201 214 232 246 259 269 277 283 287 286
206 252 243 210 215 208 223 251 233 220 215 227 235 202 205 208 180 181 187 180 172 168 167 163 167 182 172 166 167 163 165 168 172 192 214 233 250 262 269 275 280 283 288 288
Height
1485 1488 1478 1477 1475 1470 1469 1463 1458 1449 1446 1452 1459 1461 1458 1457 1457 1458 1460 1461 1463 1465 1467 1467 1469 1472 1475 1478 1479 1482 1483 1484 1485 1486 1490 1495 1497 1501 1503 1507 1511 1515 1517 1520
1481 1472 1469 1470 1468 1468 1469 1467 1460 1448 1443 1450 1453 1456 1454 1454 1453 1452 1452 1453 1454 1456 1460 1462 1464 1466 1469 1470 1472 1475 1480 1482 1483 1483 1484 1489 1492 1496 1499 1503 1506 1509 1511 1513
1467 1460 1467 1466 1464 1465 1461 1463 1462 1461 1451 1446 1452 1456 1452 1448 1446 1442 1442 1444 1447 1449 1452 1455 1456 1459 1461 1463 1467 1471 1475 1478 1479 1479 1482 1486 1492 1495 1496 1498 1501 1504 1505 1507
1459 1461 1456 1458 1460 1457 1462 1453 1456 1459 1462 1469 1451 1466 1445 1436 1430 1424 1431 1436 1439 1442 1445 1448 1450 1452 1455 1458 1462 1465 1468 1471 1474 1476 1476 1478 1483 1486 1490 1493 1497 1498 1501 1502
1443 1451 1453 1451 1446 1454 1451 1451 1453 1455 1461 1465 1460 1465 1445 1434 1433 1426 1425 1428 1431 1436 1438 1440 1444 1448 1452 1454 1456 1460 1461 1464 1468 1470 1473 1475 1479 1482 1485 1488 1491 1492 1494 1498
1437 1443 1444 1438 1443 1445 1449 1453 1454 1455 1459 1471 1450 1457 1444 1436 1428 1417 1415 1421 1426 1431 1433 1436 1439 1443 1446 1450 1454 1455 1457 1459 1461 1466 1467 1470 1473 1478 1482 1483 1486 1489 1492 1493
1432 1430 1432 1437 1442 1442 1447 1455 1471 1474 1474 1457 1446 1451 1430 1419 1415 1412 1411 1416 1423 1427 1430 1432 1435 1441 1446 1447 1451 1452 1453 1457 1460 1460 1463 1464 1469 1474 1478 1478 1481 1483 1486 1489
1432 1436 1422 1419 1424 1434 1439 1447 1460 1472 1464 1443 1432 1434 1415 1405 1402 1404 1409 1414 1420 1424 1427 1432 1435 1439 1444 1445 1446 1447 1449 1451 1454 1455 1457 1461 1464 1468 1470 1473 1476 1478 1481 1484
1421 1415 1411 1419 1417 1424 1428 1440 1428 1449 1439 1444 1422 1402 1391 1394 1399 1403 1407 1413 1418 1423 1428 1432 1436 1438 1439 1441 1442 1443 1444 1446 1449 1452 1456 1458 1462 1463 1466 1469 1472 1474 1477 1481
1409 1414 1404 1401 1414 1414 1423 1417 1443 1443 1465 1462 1430 1416 1408 1397 1398 1398 1402 1407 1412 1419 1425 1430 1434 1434 1436 1437 1439 1440 1442 1445 1447 1451 1454 1456 1458 1461 1463 1465 1468 1470 1474 1478
1414 1412 1401 1395 1401 1404 1417 1424 1422 1423 1434 1448 1439 1419 1395 1396 1393 1392 1398 1405 1410 1414 1418 1423 1428 1429 1432 1434 1435 1437 1441 1444 1447 1450 1452 1455 1456 1458 1461 1463 1465 1468 1472 1475
1401 1405 1413 1394 1384 1386 1395 1411 1415 1424 1425 1413 1417 1414 1384 1390 1395 1395 1397 1401 1405 1410 1415 1419 1424 1425 1428 1431 1432 1434 1438 1441 1445 1448 1450 1453 1455 1456 1458 1461 1464 1466 1469 1472
1393 1404 1418 1408 1394 1381 1385 1393 1400 1398 1402 1413 1421 1403 1395 1387 1391 1394 1397 1399 1401 1405 1411 1416 1421 1422 1423 1427 1429 1432 1435 1439 1443 1446 1448 1452 1454 1455 1457 1457 1459 1462 1466 1469
1385 1385 1394 1402 1386 1386 1384 1382 1385 1393 1409 1406 1404 1390 1388 1388 1387 1384 1389 1395 1397 1403 1409 1413 1417 1417 1420 1421 1425 1429 1433 1436 1440 1443 1444 1447 1451 1455 1456 1457 1459 1461 1464 1467
1387 1380 1381 1378 1381 1378 1379 1374 1378 1386 1389 1400 1394 1386 1379 1382 1383 1384 1387 1392 1395 1398 1403 1407 1411 1413 1415 1420 1420 1424 1429 1434 1437 1439 1443 1446 1450 1452 1454 1456 1457 1459 1462 1465
1380 1382 1379 1372 1368 1373 1367 1361 1365 1374 1379 1381 1382 1377 1372 1380 1383 1383 1384 1386 1390 1392 1395 1399 1404 1410 1412 1414 1419 1422 1426 1431 1435 1438 1440 1441 1445 1448 1451 1453 1455 1458 1461 1463
1402 1402 1378 1379 1361 1361 1371 1363 1353 1361 1365 1367 1376 1366 1369 1371 1375 1376 1379 1381 1382 1384 1388 1392 1397 1401 1405 1410 1413 1417 1421 1428 1434 1437 1440 1441 1442 1445 1450 1453 1455 1457 1458 1460
1395 1396 1389 1374 1365 1361 1343 1347 1351 1351 1352 1359 1362 1353 1355 1359 1364 1369 1370 1372 1375 1378 1382 1386 1390 1391 1396 1403 1407 1413 1419 1424 1430 1432 1435 1439 1442 1444 1446 1448 1452 1454 1455 1456
1382 1392 1384 1369 1356 1345 1339 1341 1349 1350 1345 1346 1346 1347 1349 1351 1357 1359 1358 1365 1367 1371 1376 1379 1381 1382 1386 1393 1400 1409 1415 1420 1424 1427 1431 1434 1436 1439 1442 1444 1446 1449 1450 1452
1358 1368 1383 1367 1348 1343 1334 1327 1337 1340 1347 1338 1338 1334 1335 1344 1357 1344 1354 1356 1360 1364 1366 1370 1372 1375 1380 1385 1394 1402 1408 1413 1417 1420 1425 1430 1432 1435 1436 1439 1442 1444 1446 1448
1345 1353 1352 1348 1338 1323 1316 1321 1323 1341 1331 1320 1326 1327 1329 1335 1338 1342 1346 1349 1352 1355 1359 1365 1368 1371 1377 1383 1389 1398 1403 1407 1412 1418 1422 1425 1428 1430 1431 1434 1437 1437 1439 1441
1324 1338 1335 1338 1334 1334 1309 1306 1310 1301 1308 1312 1317 1320 1327 1330 1335 1337 1340 1344 1348 1351 1357 1361 1366 1370 1376 1381 1387 1393 1399 1407 1412 1417 1421 1423 1424 1426 1426 1427 1431 1434 1435 1436
1323 1322 1317 1306 1296 1285 1292 1299 1302 1302 1300 1304 1308 1311 1320 1328 1333 1335 1338 1342 1348 1351 1355 1360 1363 1369 1375 1380 1385 1392 1399 1406 1411 1414 1416 1417 1418 1420 1423 1426 1429 1431 1430 1431
1287 1302 1317 1296 1282 1291 1289 1296 1296 1298 1300 1305 1308 1312 1318 1324 1329 1333 1338 1343 1347 1350 1355 1359 1363 1370 1375 1379 1385 1391 1398 1404 1408 1411 1412 1414 1416 1419 1422 1424 1425 1426 1426 1426
1294 1291 1288 1287 1282 1282 1289 1294 1293 1296 1298 1303 1307 1311 1314 1320 1326 1330 1336 1341 1346 1351 1356 1359 1363 1368 1375 1381 1386 1391 1396 1400 1404 1408 1410 1413 1415 1417 1419 1420 1421 1420 1420 1420
1283 1285 1280 1272 1272 1284 1286 1289 1290 1294 1299 1303 1305 1308 1313 1317 1323 1328 1334 1339 1344 1349 1355 1358 1362 1368 1376 1381 1386 1390 1395 1399 1403 1406 1409 1411 1412 1413 1414 1414 1414 1415 1414 1414